カタログに戻る

CZ-4 DEB

運用中SSO
NORAD 37624·DEBRIS·🇨🇳 China

打ち上げ Sep 3, 1990 から Taiyuan Satellite Launch Center

Loading…

次のパス (今後24時間)

TLE

最新Source: Space-Track

元期: Sep 13, 2026, 04:10 UTC

1 37624U 90081DL  26256.17424947  .00000217  00000-0  15274-3 0  9991
2 37624  98.9213 235.9551 0012931 102.9749 317.0138 14.08176085667758

AllMySatでCZ-4 DEBをリアルタイム追跡

Download on the App Store